(321954) = 2001 RR144 = 2010 UR5

Discovered at Kitt Peak on 2008-02-01 by Spacewatch.

Orbit

Orbit type: Main Belt

Note: WebGL enabled browser required.

epoch2023-09-13.0
epoch JD2460200.5
perihelion date2023-06-23.99308
perihelion JD2460119.49308
argument of perihelion (°)19.23354
ascending node (°)350.03092
inclination (°)9.10112
eccentricity0.0750273
perihelion distance (AU)2.4461192
Tisserand w.r.t. Jupiter3.4
ΔV w.r.t. Earth (km/sec)10.2
semimajor axis (AU)2.6445313
mean anomaly (°)18.56534
mean daily motion (°/day)0.22918210
aphelion distance (AU)2.843
period (years)4.3
P-vector [x]0.98623781
P-vector [y]0.12323268
P-vector [z]0.11022106
Q-vector [x]-0.16304950
Q-vector [y]0.83536570
Q-vector [z]0.52495619
absolute magnitude16.52
phase slope0.15
uncertainty0
referenceMPEC 2024-B145
observations used299
oppositions12
arc length (days)8171
first opposition used2001
last opposition used2024
residual rms (arc-secs)0.63
perturbers coarse indicatorM-v
perturbers precise indicator003Ek
first observation date used2001-09-13.0
last observation date used2024-01-27.0
computer nameMPCLINUX
JD of orbit computation2456966.891422
perihelion JD uncertainty (days)1.6768E-04
argument of perihelion uncertainty (°)4.6156E-05
ascending node uncertainty (°)1.8638E-05
inclination uncertainty (°)8.4858E-06
eccentricity uncertainty 1.0870E-07
perihelion distance uncertainty (AU)3.0563E-07
Minimum Orbit Intersection Distances (in AU)
for orbit epoch: 2460200.5, reference: E2024-BE5
Mercury2.08207
Venus1.72515
Earth1.44525
Mars1.04565
Jupiter2.51467
Saturn6.43807
Uranus15.6185
Neptune27.4039

Observations

309 total observations over interval: 2001 09 13.17578 – 2024 01 27.322588
These data are available for download (format description).

Date (UT) J2000 RA J2000 Dec Magn Location Ref
2001 09 13.17578 22 32 52.00 -11 36 58.6 19.9 R 734 – Farpoint Observatory, Eskridge MPC 44259
2001 09 13.18369 22 32 51.56 -11 36 59.0 19.6 R 734 – Farpoint Observatory, Eskridge MPC 44259
2001 09 13.23709 22 32 48.51 -11 37 02.1 19.7 R 734 – Farpoint Observatory, Eskridge MPC 44259
2006 11 22.31649 04 29 00.42 +36 20 33.1 19.5 V 703 – Catalina Sky Survey MPS 357558
2006 11 22.32196 04 29 00.02 +36 20 32.1 19.5 V 703 – Catalina Sky Survey MPS 357558
2006 11 22.32744 04 28 59.59 +36 20 32.8 19.7 V 703 – Catalina Sky Survey MPS 357558
2006 11 22.33287 04 28 59.30 +36 20 32.8 19.3 V 703 – Catalina Sky Survey MPS 357558
2008 02 01.45131 11 57 20.33 +01 47 13.8 21.8 V 691 – Steward Observatory, Kitt Peak-Spacewatch MPS 357558
2008 02 01.47383 11 57 19.85 +01 47 13.6 21.9 V 691 – Steward Observatory, Kitt Peak-Spacewatch MPS 357558
2008 02 01.51043 11 57 19.15 +01 47 12.3 21.1 V 691 – Steward Observatory, Kitt Peak-Spacewatch MPS 357558
2008 02 26.22703 11 42 30.97 +02 14 49.2   691 – Steward Observatory, Kitt Peak-Spacewatch MPS 357558
2008 02 26.24462 11 42 30.07 +02 14 51.5   691 – Steward Observatory, Kitt Peak-Spacewatch MPS 357558
2008 02 26.26220 11 42 29.12 +02 14 54.0   691 – Steward Observatory, Kitt Peak-Spacewatch MPS 357558
2008 03 08.27546 11 32 34.80 +02 44 10.1 19.5 V G96 – Mt. Lemmon Survey MPS 357558
2008 03 08.28161 11 32 34.44 +02 44 11.2 19.7 V G96 – Mt. Lemmon Survey MPS 357558
2008 03 08.28779 11 32 34.08 +02 44 11.9 20.2 V G96 – Mt. Lemmon Survey MPS 357558
2008 03 08.29398 11 32 33.72 +02 44 13.2 19.9 V G96 – Mt. Lemmon Survey MPS 357558
2010 10 17.39897 01 50 08.92 +21 41 22.6 20.0 V 691 – Steward Observatory, Kitt Peak-Spacewatch MPS 351773
2010 10 17.40833 01 50 08.34 +21 41 22.0 19.9 V 691 – Steward Observatory, Kitt Peak-Spacewatch MPS 351773
2010 10 17.41768 01 50 07.75 +21 41 21.0 19.8 V 691 – Steward Observatory, Kitt Peak-Spacewatch MPS 351773
2010 10 18.42853 01 49 06.31 +21 40 01.8 19.9 V 691 – Steward Observatory, Kitt Peak-Spacewatch MPS 351773
2010 10 18.43717 01 49 05.76 +21 40 01.1 19.9 V 691 – Steward Observatory, Kitt Peak-Spacewatch MPS 351773
2010 10 18.44592 01 49 05.22 +21 40 00.5 19.9 V 691 – Steward Observatory, Kitt Peak-Spacewatch MPS 351773
2010 11 02.23115 01 34 18.01 +21 04 37.8 19.6 V G96 – Mt. Lemmon Survey MPS 357558
2010 11 02.23943 01 34 17.50 +21 04 36.4 19.7 V G96 – Mt. Lemmon Survey MPS 357558
2010 11 02.24779 01 34 17.04 +21 04 34.9 19.6 V G96 – Mt. Lemmon Survey MPS 357558
2010 11 02.25604 01 34 16.53 +21 04 33.3 19.8 V G96 – Mt. Lemmon Survey MPS 357558
2010 11 11.22671 01 26 35.08 +20 33 54.5 19.3 V 703 – Catalina Sky Survey MPS 357558
2010 11 11.23246 01 26 34.76 +20 33 52.9 20.0 V 703 – Catalina Sky Survey MPS 357558
2010 11 11.23822 01 26 34.47 +20 33 52.6 20.3 V 703 – Catalina Sky Survey MPS 357558
2010 11 11.24399 01 26 34.26 +20 33 51.5 19.6 V 703 – Catalina Sky Survey MPS 357558
2012 01 20.36939 10 17 09.67 +18 06 04.9 20.6 V 691 – Steward Observatory, Kitt Peak-Spacewatch MPS 407780
2012 01 20.38732 10 17 08.93 +18 06 07.7 20.8 V 691 – Steward Observatory, Kitt Peak-Spacewatch MPS 407780
2012 01 20.40527 10 17 08.21 +18 06 11.4 20.4 V 691 – Steward Observatory, Kitt Peak-Spacewatch MPS 407780
2012 02 01.55812 10 07 23.264 +18 40 40.80 21.2 g F51 – Pan-STARRS 1, Haleakala MPS 410255
2012 02 01.57109 10 07 22.541 +18 40 43.07 21.2 g F51 – Pan-STARRS 1, Haleakala MPS 410255
2012 02 03.34494 10 05 44.16 +18 45 49.2 20.6 V G96 – Mt. Lemmon Survey MPS 410255
2012 02 03.35229 10 05 43.69 +18 45 51.3 20.1 V G96 – Mt. Lemmon Survey MPS 410255
2012 02 03.35976 10 05 43.29 +18 45 51.5 20.3 V G96 – Mt. Lemmon Survey MPS 410255
2012 02 03.36726 10 05 42.86 +18 45 52.9 20.3 V G96 – Mt. Lemmon Survey MPS 410255
2012 02 04.54212 10 04 36.087 +18 49 14.39 20.4 i F51 – Pan-STARRS 1, Haleakala MPS 411627
2012 02 04.55515 10 04 35.318 +18 49 16.64 20.3 i F51 – Pan-STARRS 1, Haleakala MPS 411627
2012 02 14.52648 09 54 40.101 +19 15 09.86 20.2 i F51 – Pan-STARRS 1, Haleakala MPS 411627
2012 02 14.53993 09 54 39.256 +19 15 11.80 20.2 i F51 – Pan-STARRS 1, Haleakala MPS 411627
2012 02 15.35013 09 53 50.094 +19 17 00.92 20.5 w F51 – Pan-STARRS 1, Haleakala MPS 411627
2012 02 15.36399 09 53 49.220 +19 17 02.79 20.4 w F51 – Pan-STARRS 1, Haleakala MPS 411627
2012 02 15.37786 09 53 48.346 +19 17 04.69 20.5 w F51 – Pan-STARRS 1, Haleakala MPS 411627
2012 02 15.39182 09 53 47.463 +19 17 06.58 20.5 w F51 – Pan-STARRS 1, Haleakala MPS 411627
2012 03 27.17851 09 23 28.53 +19 11 51.9 21.4 V G96 – Mt. Lemmon Survey MPS 420241
2012 03 27.18715 09 23 28.39 +19 11 50.4 21.0 V G96 – Mt. Lemmon Survey MPS 420241
2012 03 27.19580 09 23 28.24 +19 11 48.8 21.1 V G96 – Mt. Lemmon Survey MPS 420241
2012 03 27.20448 09 23 28.06 +19 11 47.5 21.2 V G96 – Mt. Lemmon Survey MPS 420241
2014 08 04.51951 23 59 53.752 -02 14 08.24 20.6 w F51 – Pan-STARRS 1, Haleakala MPS 526466
2014 08 04.53088 23 59 53.583 -02 14 06.71 20.6 w F51 – Pan-STARRS 1, Haleakala MPS 526466
2014 08 04.54222 23 59 53.440 -02 14 05.54 20.7 w F51 – Pan-STARRS 1, Haleakala MPS 526466
2014 08 04.55356 23 59 53.268 -02 14 03.97 20.8 w F51 – Pan-STARRS 1, Haleakala MPS 526466
2014 08 22.47910 23 52 09.831 -01 57 35.16 20.0 w F51 – Pan-STARRS 1, Haleakala MPS 529577
2014 08 22.49133 23 52 09.324 -01 57 35.28 20.0 w F51 – Pan-STARRS 1, Haleakala MPS 529577
2014 08 22.51589 23 52 08.296 -01 57 35.41 20.1 w F51 – Pan-STARRS 1, Haleakala MPS 529577
2014 08 23.49320 23 51 28.954 -01 57 46.28 20.0 w F51 – Pan-STARRS 1, Haleakala MPS 529577
2014 08 23.50478 23 51 28.451 -01 57 46.42 20.0 w F51 – Pan-STARRS 1, Haleakala MPS 529577
2014 08 23.51639 23 51 27.948 -01 57 46.57 20.1 w F51 – Pan-STARRS 1, Haleakala MPS 529577
2014 08 23.52799 23 51 27.448 -01 57 46.77 20.0 w F51 – Pan-STARRS 1, Haleakala MPS 529577
2014 08 29.26214 23 47 11.47 -02 00 47.1 20.1 V 691 – Steward Observatory, Kitt Peak-Spacewatch MPS 529577
2014 08 29.28261 23 47 10.45 -02 00 48.1 20.1 V 691 – Steward Observatory, Kitt Peak-Spacewatch MPS 529577
2014 08 29.30308 23 47 09.43 -02 00 49.0 20.2 V 691 – Steward Observatory, Kitt Peak-Spacewatch MPS 529577
2014 08 31.29899 23 45 31.12 -02 02 32.4 18.8 V 703 – Catalina Sky Survey MPS 538695
2014 08 31.31312 23 45 30.48 -02 02 34.8 19.4 V 703 – Catalina Sky Survey MPS 538695
2014 08 31.32015 23 45 30.13 -02 02 35.4 20.0 V 703 – Catalina Sky Survey MPS 538695
2014 08 31.39911 23 45 25.97 -02 02 38.7 19.2 V G96 – Mt. Lemmon Survey MPS 531324
2014 08 31.40418 23 45 25.72 -02 02 39.0 19.4 V G96 – Mt. Lemmon Survey MPS 531324
2014 08 31.40924 23 45 25.44 -02 02 39.2 19.5 V G96 – Mt. Lemmon Survey MPS 531324
2014 08 31.41432 23 45 25.18 -02 02 39.3 19.4 V G96 – Mt. Lemmon Survey MPS 531324
2014 09 02.27241 23 43 50.29 -02 04 34.2 19.8 V 691 – Steward Observatory, Kitt Peak-Spacewatch MPS 531324
2014 09 02.29034 23 43 49.33 -02 04 35.1 20.0 V 691 – Steward Observatory, Kitt Peak-Spacewatch MPS 531324
2014 09 02.30824 23 43 48.35 -02 04 36.4 20.1 V 691 – Steward Observatory, Kitt Peak-Spacewatch MPS 531324
2014 09 12.48038 23 34 24.099 -02 18 26.57 19.3 i F51 – Pan-STARRS 1, Haleakala MPS 532981
2014 09 12.48502 23 34 23.818 -02 18 26.93 19.4 i F51 – Pan-STARRS 1, Haleakala MPS 532981
2014 09 12.49188 23 34 23.408 -02 18 27.59 19.3 i F51 – Pan-STARRS 1, Haleakala MPS 532981
2014 09 12.49652 23 34 23.131 -02 18 27.94 19.4 i F51 – Pan-STARRS 1, Haleakala MPS 532981
2014 09 12.50337 23 34 22.716 -02 18 28.72 19.3 i F51 – Pan-STARRS 1, Haleakala MPS 532981
2014 09 12.50799 23 34 22.444 -02 18 29.08 19.4 i F51 – Pan-STARRS 1, Haleakala MPS 532981
2014 09 12.51484 23 34 22.042 -02 18 29.80 19.4 i F51 – Pan-STARRS 1, Haleakala MPS 532981
2014 09 19.33076 23 27 47.505 -02 29 17.69 19.5 w F51 – Pan-STARRS 1, Haleakala MPS 536297
2014 09 19.34220 23 27 46.825 -02 29 18.83 19.4 w F51 – Pan-STARRS 1, Haleakala MPS 536297
2014 09 19.35363 23 27 46.144 -02 29 19.87 19.5 w F51 – Pan-STARRS 1, Haleakala MPS 536297
2014 09 19.36508 23 27 45.457 -02 29 20.99 19.5 w F51 – Pan-STARRS 1, Haleakala MPS 536297
2014 09 23.32820 23 24 00.326 -02 35 25.32 19.8 w F51 – Pan-STARRS 1, Haleakala MPS 536297
